Date String (YYYY-MM-DD hh:mm:ss) UTC,Instrument flags,Ambient pressure (hPa),Sample flow (lpm),Bypass flow (lpm),Sample temperature (°C),Ambient temperature (°C),ASC tube jacket temperature (°C),LED temperature (°C),Box temperature (°C),Sample RH (%),Span deviation,Mass concentration (μg/m³),Mass concentration (μg/m³),Mass concentration (μg/m³)
DateTimeUTC,F1_M11,P_M11,Q1_M11,Q2_M11,T1_M11,T2_M11,T3_M11,T4_M11,T5_M11,U1_M11,ZSPAN_M11,X0_M11,X2_M11,X1_M11
2022-03-02 22:00:00,,0827.9,5.00,0.00,29.6,26.5,00.0,38.7,31.1,10.7,0003.4,0016.48,0008.46,0007.83
2022-03-02 22:01:00,,0827.9,4.98,0.00,29.6,27.0,00.0,38.7,31.2,10.7,0002.8,0016.30,0008.44,0007.81
2022-03-02 22:02:00,,0827.9,5.01,0.00,29.6,27.4,00.0,38.7,31.3,10.6,0002.3,0015.58,0008.42,0007.79
2022-03-02 22:03:00,,0827.8,4.99,0.00,29.6,27.8,00.0,38.7,31.3,10.7,0002.3,0015.58,0008.36,0007.77
2022-03-02 22:04:00,,0827.8,5.02,0.00,29.7,28.1,00.0,38.7,31.4,10.9,0001.0,0015.40,0008.18,0007.65
2022-03-02 22:05:00,,0827.8,4.99,0.00,29.7,28.3,00.0,38.7,31.5,10.6,0000.6,0015.24,0008.10,0007.54
2022-03-02 22:06:00,,0827.8,5.02,0.00,29.7,28.5,00.0,38.7,31.5,10.8,0000.4,0014.71,0007.95,0007.40
2022-03-02 22:07:00,,0827.8,4.99,0.00,29.8,28.6,00.0,38.7,31.6,10.5,0000.2,0014.64,0007.79,0007.27
2022-03-02 22:08:00,,0827.8,5.00,0.00,29.8,28.7,00.0,38.7,31.6,10.5,0000.3,0014.56,0007.69,0007.17
2022-03-02 22:09:00,,0827.8,5.00,0.00,29.8,28.9,00.0,38.7,31.7,10.4,-000.1,0014.43,0007.58,0007.07
2022-03-02 22:10:00,,0827.8,5.00,0.00,29.9,29.0,00.0,38.7,31.7,10.2,0000.7,0014.48,0007.46,0006.94
2022-03-02 22:11:00,,0827.8,5.01,0.00,29.9,29.0,00.0,38.7,31.8,10.0,0001.2,0014.00,0007.35,0006.80
2022-03-02 22:12:00,,0827.9,5.00,0.00,29.9,29.0,00.0,38.8,31.7,09.9,0001.2,0013.44,0007.20,0006.62
2022-03-02 22:13:00,,0827.8,5.00,0.00,29.9,27.4,00.0,38.8,31.3,10.1,0000.8,0012.93,0006.99,0006.42
2022-03-02 22:14:00,,0827.8,4.99,0.00,29.6,25.6,00.0,38.7,30.7,10.3,0002.6,0012.49,0006.76,0006.18
2022-03-02 22:15:00,,0827.8,5.01,0.00,29.5,25.6,00.0,38.7,30.6,10.5,0003.4,0012.01,0006.55,0005.98
2022-03-02 22:16:00,,0827.8,5.00,0.00,29.4,26.0,00.0,38.6,30.7,10.3,0004.1,0011.57,0006.31,0005.75
2022-03-02 22:17:00,,0827.8,5.01,0.00,29.4,26.5,00.0,38.5,30.8,10.4,0004.8,0011.04,0006.04,0005.55
2022-03-02 22:18:00,,0827.8,4.99,0.00,29.4,27.0,00.0,38.5,31.0,10.4,0004.8,0010.65,0005.78,0005.34
2022-03-02 22:19:00,,0827.8,5.00,0.00,29.4,27.4,00.0,38.5,31.1,10.3,0005.3,0010.33,0005.57,0005.12
2022-03-02 22:20:00,,0827.8,5.00,0.00,29.4,27.7,00.0,38.5,31.2,10.7,0005.9,0010.24,0005.37,0004.95
2022-03-02 22:21:00,,0827.8,4.99,0.00,29.5,27.9,00.0,38.4,31.2,10.8,0005.7,0010.35,0005.15,0004.75
2022-03-02 22:22:00,,0827.8,5.01,0.00,29.5,28.1,00.0,38.4,31.3,10.6,0005.2,0009.88,0004.96,0004.58
2022-03-02 22:23:00,,0827.9,4.99,0.00,29.5,28.3,00.0,38.5,31.3,10.2,0005.8,0009.53,0004.75,0004.42
2022-03-02 22:24:00,,0827.9,5.00,0.00,29.6,28.5,00.0,38.5,31.4,10.1,0005.8,0009.37,0004.62,0004.31
2022-03-02 22:25:00,,0827.9,5.01,0.00,29.6,28.6,00.0,38.5,31.4,10.3,0004.2,0009.18,0004.54,0004.25
2022-03-02 22:26:00,,0827.9,4.98,0.00,29.6,28.7,00.0,38.5,31.5,10.3,0004.9,0009.03,0004.48,0004.19
2022-03-02 22:27:00,,0827.9,5.01,0.00,29.7,28.8,00.0,38.5,31.5,10.1,0005.3,0008.82,0004.41,0004.12
2022-03-02 22:28:00,,0827.8,5.00,0.00,29.7,28.8,00.0,38.6,31.6,10.1,0005.0,0008.69,0004.35,0004.06
2022-03-02 22:29:00,,0827.9,4.99,0.00,29.7,28.9,00.0,38.6,31.6,10.1,0004.5,0008.53,0004.28,0003.99
2022-03-02 22:30:00,,0827.8,5.01,0.00,29.8,29.0,00.0,38.6,31.7,10.2,0004.5,0008.80,0004.24,0003.95
2022-03-02 22:31:00,,0827.8,5.00,0.00,29.8,28.6,00.0,38.6,31.5,10.1,0005.9,0008.78,0004.24,0003.92
2022-03-02 22:32:00,,0827.8,4.99,0.00,29.7,26.9,00.0,38.6,31.2,10.3,0006.0,0008.39,0004.22,0003.91
2022-03-02 22:33:00,,0827.8,5.00,0.00,29.6,26.5,00.0,38.6,31.0,10.4,0005.0,0007.73,0004.19,0003.88
2022-03-02 22:34:00,,0827.8,5.00,0.00,29.5,26.8,00.0,38.5,31.0,10.3,0004.1,0007.88,0004.18,0003.85
2022-03-02 22:35:00,,0827.8,5.01,0.00,29.5,27.2,00.0,38.5,31.0,10.0,0004.9,0007.93,0004.17,0003.82
2022-03-02 22:36:00,,0827.7,5.00,0.00,29.5,27.5,00.0,38.5,31.1,10.0,0001.7,0008.17,0004.17,0003.80
2022-03-02 22:37:00,,0827.7,5.00,0.00,29.5,27.8,00.0,38.5,31.2,10.2,-001.4,0008.18,0004.16,0003.80
2022-03-02 22:38:00,,0827.8,5.01,0.00,29.5,28.0,00.0,38.5,31.2,10.2,-002.2,0008.16,0004.14,0003.78
2022-03-02 22:39:00,,0827.7,4.99,0.00,29.5,28.2,00.0,38.5,31.3,10.2,-002.0,0008.33,0004.15,0003.76
2022-03-02 22:40:00,,0827.7,5.01,0.00,29.6,28.3,00.0,38.5,31.3,10.1,0003.5,0008.36,0004.16,0003.76
2022-03-02 22:41:00,,0827.7,4.99,0.00,29.6,28.4,00.0,38.5,31.4,10.0,0004.6,0008.06,0004.13,0003.74
2022-03-02 22:42:00,,0827.8,5.02,0.00,29.6,28.6,00.0,38.5,31.4,10.0,0000.4,0007.81,0004.06,0003.71
2022-03-02 22:43:00,,0827.8,4.99,0.00,29.6,28.7,00.0,38.5,31.5,10.1,0001.9,0007.69,0004.03,0003.68
2022-03-02 22:44:00,,0827.8,5.00,0.00,29.7,28.7,00.0,38.6,31.5,10.2,0002.2,0007.56,0003.99,0003.64
2022-03-02 22:45:00,,0827.7,4.99,0.00,29.7,28.8,00.0,38.6,31.5,10.1,0002.8,0007.49,0003.97,0003.62
2022-03-02 22:46:00,,0827.7,5.01,0.00,29.7,28.8,00.0,38.6,31.6,10.2,0003.2,0007.41,0003.94,0003.58
2022-03-02 22:47:00,,0827.7,5.00,0.00,29.7,28.9,00.0,38.6,31.6,10.3,0002.8,0007.64,0003.89,0003.53
2022-03-02 22:48:00,,0827.7,5.01,0.00,29.7,28.9,00.0,38.6,31.6,10.1,0003.1,0007.73,0003.83,0003.48
2022-03-02 22:49:00,,0827.7,4.99,0.00,29.8,28.9,00.0,38.6,31.6,10.1,0002.2,0008.32,0003.81,0003.45
2022-03-02 22:50:00,,0827.7,5.00,0.00,29.8,28.0,00.0,38.6,31.4,10.1,0002.0,0008.40,0003.76,0003.40
2022-03-02 22:51:00,,0827.7,5.00,0.00,29.6,26.4,00.0,38.6,31.0,10.2,0000.0,0008.30,0003.71,0003.36
2022-03-02 22:52:00,,0827.7,4.98,0.00,29.6,26.4,00.0,38.6,31.0,10.3,0000.0,0008.42,0003.67,0003.32
2022-03-02 22:53:00,,0827.7,5.02,0.00,29.5,26.8,00.0,38.6,31.0,10.4,0000.0,0009.15,0003.65,0003.29
2022-03-02 22:54:00,,0827.7,4.99,0.00,29.5,27.2,00.0,38.5,31.1,10.3,0000.0,0009.14,0003.63,0003.27
2022-03-02 22:55:00,,0827.7,5.01,0.00,29.5,27.5,00.0,38.5,31.2,10.3,0000.0,0009.38,0003.64,0003.25
2022-03-02 22:56:00,,0827.7,4.98,0.00,29.5,27.8,00.0,38.5,31.3,10.2,0000.0,0009.76,0003.65,0003.25
2022-03-02 22:57:00,,0827.7,5.02,0.00,29.5,28.1,00.0,38.5,31.3,10.3,0000.0,0009.83,0003.65,0003.25
2022-03-02 22:58:00,,0827.7,4.98,0.00,29.6,28.3,00.0,38.5,31.4,10.4,0000.0,0009.63,0003.68,0003.25
2022-03-02 22:59:00,,0827.7,5.00,0.00,29.6,28.4,00.0,38.5,31.4,10.4,0000.0,0009.66,0003.72,0003.27
